sat.trackr.live / text

‹ back to catalog

STARLINK-1048

NORAD 44753 · 2019-074AS

PAYLOAD ACTIVE UNKNOWN

§ Identity

Operator
Country
US
Launch date
2019-11-11
Launch site
AFETR
Launch vehicle
Mass (kg)
RCS (m²)

Purposes: comms

External: N2YO · Heavens-Above · Gunter

§ Orbital elements

Epoch: 2026-09-19T17:24:29.153952Z

Period
91.15 min
Inclination
53.0408°
Eccentricity
0.0007034
Mean motion
15.79765469 rev/d
Perigee alt
326.4 km
Apogee alt
335.8 km
Semi-major
6,709.2 km
B*
3.8549e-4
RAAN
292.8529°
Arg perigee
30.4066°
Mean anomaly
329.7361°
Rev number
37,943

§ Raw data

STARLINK-10481 44753U 19074AS  26262.72533743  .00072351  00000+0  38549-3 0  99952 44753  53.0408 292.8529 0007034  30.4066 329.7361 15.79765469379431

JSON: /api/v1/satellites/44753 · /tle

For live sub-satellite position, see the globe view (requires WebGL).

§ Visibility from observer

Set your observer location to see the next 7 days of passes ≥ 10°. The values pass through the URL so the page stays shareable.

No JS? Fill the form by hand. The geolocation button needs JavaScript.